Ogden Hill AFB, UT

3:04 AM MST on January 24, 2018 (GMT -0700)
Hill Air Force Base

Weather History for KHIF - January, 2013

Change the Weather History Date:

Monday, January 14, 2013

  Actual Average Record
Temperature  
Mean Temperature 3 °F -  
Max Temperature 10 °F 34 °F 50 °F (2006)
Min Temperature -4 °F 22 °F -4 °F (2013)
Degree Days  
Heating Degree Days 62    
Moisture  
Dew Point -3 °F    
Average Humidity 73    
Maximum Humidity 85    
Minimum Humidity 66    
Precipitation  
Precipitation 0.00 in - - ()
Sea Level Pressure  
Sea Level Pressure 30.43 in    
Wind  
Wind Speed 9 mph (SE)    
Max Wind Speed 16 mph    
Max Gust Speed -    
Visibility 9 miles    
Events Snow    
Averages and records for this station are not official NWS values.
T = Trace of Precipitation, MM = Missing Value Source: NWS Daily Summary

Daily Weather History Graph

Daily Weather History Graph

Search for Another Location

Airport or City:

Trip Planner

Search our weather history database for the weather conditions in past years. The results will help you decide how hot, cold, wet, or windy it might be!

Date:

Astronomy

Jan. 14, 2013 Rise Set
Actual Time 7:51 AM MST 5:23 PM MST
Civil Twilight 7:20 AM MST 5:53 PM MST
Nautical Twilight 6:46 AM MST 6:27 PM MST
Astronomical Twilight 6:13 AM MST 7:00 PM MST
Moon 9:24 AM MST (1/14) 9:15 PM MST (1/14)
Length of Visible Light 10h 32m
Length of Day
9h 32m
Waxing Crescent, 12% of the Moon is Illuminated
Jan 14
Waxing Crescent
Jan 18
First Quarter
Jan 26
Full
Feb 3
Last Quarter
Feb 10
New

Hourly Weather History & Observations

Time (MST) Temp. Windchill Dew Point Humidity Pressure Visibility Wind Dir Wind Speed Gust Speed Precip Events Conditions
12:58 AM -0.9 °F -19.1 °F -7.8 °F 73% 30.40 in 10.0 mi ESE 12.7 mph - N/A   Clear
1:58 AM -1.7 °F -20.8 °F -8.7 °F 72% 30.41 in 10.0 mi ESE 13.8 mph - N/A   Clear
2:58 AM -2.4 °F -20.9 °F -9.2 °F 73% 30.43 in 10.0 mi ESE 12.7 mph - N/A   Clear
3:58 AM -3.1 °F -23.3 °F -9.9 °F 73% 30.45 in 10.0 mi ESE 15.0 mph - N/A   Clear
4:58 AM -3.3 °F -22.8 °F -10.1 °F 73% 30.47 in 10.0 mi ESE 13.8 mph - N/A   Partly Cloudy
5:58 AM -2.7 °F -21.4 °F -9.6 °F 73% 30.48 in 10.0 mi ESE 12.7 mph - N/A   Clear
6:58 AM -3.8 °F -24.3 °F -11.0 °F 71% 30.51 in 10.0 mi ESE 15.0 mph - N/A   Clear
7:38 AM -4.0 °F -25.2 °F -9.4 °F 78% 30.24 in 10.0 mi ESE 16.1 mph - N/A   Mostly Cloudy
7:58 AM -3.1 °F -23.3 °F -10.7 °F 70% 30.53 in 10.0 mi ESE 15.0 mph - N/A   Mostly Cloudy
8:58 AM -2.2 °F -22.9 °F -9.4 °F 71% 30.54 in 10.0 mi ESE 16.1 mph - N/A   Mostly Cloudy
9:53 AM -0.4 °F -17.6 °F -7.6 °F 72% 30.28 in 10.0 mi East 11.5 mph - N/A   Mostly Cloudy
9:58 AM 0.1 °F -16.9 °F -7.8 °F 69% 30.55 in 10.0 mi East 11.5 mph - N/A   Mostly Cloudy
10:05 AM -0.4 °F -17.6 °F -7.6 °F 72% 30.28 in 4.0 mi ESE 11.5 mph - N/A Snow Light Snow
10:28 AM 1.4 °F -13.5 °F -7.6 °F 66% 30.29 in 4.0 mi ESE 9.2 mph - N/A Snow Light Snow
10:41 AM 1.4 °F -13.5 °F -5.8 °F 72% 30.29 in 5.0 mi ESE 9.2 mph - N/A   Haze
10:58 AM 2.1 °F -12.6 °F -6.2 °F 68% 30.56 in 5.0 mi ESE 9.2 mph - 0.00 in   Haze
11:36 AM 3.2 °F -11.3 °F -5.8 °F 66% 30.28 in 5.0 mi ESE 9.2 mph - N/A   Haze
11:51 AM 5.0 °F -8.1 °F -4.0 °F 66% 30.28 in 5.0 mi ESE 8.1 mph - N/A   Haze
11:58 AM 5.0 °F -6.9 °F -4.0 °F 66% 30.53 in 5.0 mi ESE 6.9 mph - N/A   Haze
12:40 PM 8.6 °F - -0.4 °F 67% 30.28 in 3.0 mi ESE 1.2 mph - N/A Snow Light Snow
12:58 PM 9.7 °F - 0.3 °F 66% 30.52 in 3.0 mi Calm Calm - 0.00 in Snow Light Snow
1:03 PM 10.4 °F - 1.4 °F 67% 30.28 in 8.0 mi Calm Calm - N/A Snow Light Snow
1:14 PM 10.4 °F - 1.4 °F 67% 30.27 in 5.0 mi Calm Calm - N/A   Haze
1:37 PM 8.6 °F - 1.4 °F 73% 30.27 in 10.0 mi SSW 2.3 mph - N/A   Scattered Clouds
1:58 PM 8.6 °F - 1.6 °F 73% 30.52 in 10.0 mi Calm Calm - 0.00 in   Scattered Clouds
2:56 PM 10.4 °F - 1.4 °F 67% 30.28 in 10.0 mi WSW 1.2 mph - N/A   Scattered Clouds
2:58 PM 10.4 °F - 1.4 °F 67% 30.52 in 10.0 mi WSW 2.3 mph - N/A   Scattered Clouds
3:58 PM 8.8 °F - 2.1 °F 74% 30.55 in 10.0 mi WSW 1.2 mph - N/A   Mostly Cloudy
4:58 PM 7.7 °F - 0.7 °F 73% 30.57 in 10.0 mi SW 2.3 mph - N/A   Scattered Clouds
5:58 PM 5.5 °F -1.5 °F 1.0 °F 82% 30.59 in 10.0 mi SSW 3.5 mph - N/A   Clear
6:58 PM 7.2 °F - 2.1 °F 80% 30.60 in 10.0 mi ESE 2.3 mph - N/A   Partly Cloudy
7:18 PM 6.8 °F - 1.4 °F 79% 30.32 in 10.0 mi SSE 2.3 mph - N/A   Mostly Cloudy
7:26 PM 6.8 °F -0.1 °F 1.4 °F 79% 30.32 in 10.0 mi SSE 3.5 mph - N/A Snow Light Snow
7:31 PM 6.8 °F -0.1 °F 1.4 °F 79% 30.32 in 10.0 mi SSE 3.5 mph - N/A Snow Light Snow
7:48 PM 6.8 °F -0.1 °F 1.4 °F 79% 30.32 in 10.0 mi SSE 3.5 mph - N/A   Mostly Cloudy
7:58 PM 6.6 °F -0.3 °F 1.8 °F 80% 30.59 in 10.0 mi SSE 3.5 mph - 0.00 in   Overcast
8:43 PM 6.8 °F -0.1 °F 3.2 °F 85% 30.33 in 10.0 mi ESE 3.5 mph - N/A   Overcast
8:58 PM 7.5 °F 0.8 °F 2.3 °F 79% 30.58 in 10.0 mi ESE 3.5 mph - N/A   Overcast
9:58 PM 7.7 °F -0.9 °F 2.3 °F 79% 30.58 in 10.0 mi ESE 4.6 mph - N/A   Overcast
10:28 PM 8.6 °F - 1.4 °F 73% 30.35 in 10.0 mi SSE 2.3 mph - N/A   Overcast
10:38 PM 8.6 °F - 1.4 °F 73% 30.35 in 10.0 mi SE 2.3 mph - N/A   Overcast
10:58 PM 7.5 °F -1.1 °F 1.6 °F 77% 30.59 in 10.0 mi SSE 4.6 mph - N/A   Overcast
11:58 PM 8.6 °F 0.1 °F 3.4 °F 79% 30.58 in 10.0 mi South 4.6 mph - N/A   Overcast